Location: Dvur Kralove nad Labem
(50.4330°N, 15.8170°E)
Time: 15:03:54
(UTC+02:00)

ISS - Pass Details

Date: 18 May 2018
Orbit: 402 x 407 km, 51.6° (Epoch: 24 May)

Event Time Altitude Azimuth Distance (km) Brightness Sun altitude
Exits shadow 00:15:50 12° 82° (E) 1,360 -1.2 -19.6°
Drops below altitude 10° 00:16:08 10° 80° (E) 1,478 -1.0 -19.6°
Sets 00:18:14 0° 74° (ENE) 2,319 0.1 -19.7°
